Location: Brantley
(31.5822°N, 86.2569°W)
Time: 08:26:57
(UTC+00:00)

Altair - All Passes

Search period start: 17 February 2026 00:00
Search period end: 27 February 2026 00:00
Orbit: 1502 x 1682 km, 47.2° (Epoch: 15 February)

Date Brightness Start Highest point End Pass type
(mag) Time Alt. Az. Time Alt. Az. Time Alt. Az.
17 Feb - 07:14:47 10° SSE 07:19:56 16° ESE 07:25:04 10° E visible
17 Feb - 09:14:20 10° SW 09:23:27 73° SE 09:32:43 10° NE visible
17 Feb - 11:20:01 10° W 11:28:39 43° NNW 11:37:34 10° NE visible
17 Feb - 13:27:39 10° WNW 13:35:40 31° N 13:43:57 10° ENE daylight
17 Feb - 15:33:20 10° NW 15:42:33 49° NNE 15:52:05 10° E daylight
17 Feb - 17:38:05 10° WNW 17:47:40 64° SW 17:57:32 10° SSE daylight
17 Feb - 19:46:46 10° W 19:51:17 14° WSW 19:55:51 10° SSW daylight
18 Feb - 06:50:35 10° SSE 06:54:50 14° ESE 06:59:03 10° E visible
18 Feb - 08:49:13 10° SW 08:58:15 67° SE 09:07:26 10° NE visible
18 Feb - 10:54:36 10° W 11:03:19 45° NNW 11:12:17 10° NE visible
18 Feb - 13:02:15 10° WNW 13:10:14 30° N 13:18:28 10° ENE daylight
18 Feb - 15:08:06 10° NW 15:17:12 46° NNE 15:26:35 10° E daylight
18 Feb - 17:12:48 10° NW 17:22:25 69° SW 17:32:22 10° SE daylight
18 Feb - 19:20:42 10° W 19:26:08 16° WSW 19:31:40 10° SSW daylight
19 Feb - 06:26:46 10° SE 06:29:43 12° ESE 06:32:39 10° ESE night (unlit)
19 Feb - 08:24:07 10° SSW 08:33:05 61° SE 08:42:09 10° ENE visible
19 Feb - 10:29:12 10° W 10:37:59 48° NNW 10:47:01 10° NE visible
19 Feb - 12:36:50 10° WNW 12:44:48 30° N 12:53:00 10° ENE daylight
19 Feb - 14:42:52 10° NW 14:51:50 44° NNE 15:01:06 10° E daylight
19 Feb - 16:47:33 10° NW 16:57:11 75° SW 17:07:10 10° SE daylight
19 Feb - 18:54:49 10° W 19:00:59 19° SW 19:07:16 10° SSW daylight
20 Feb - 07:59:03 10° SSW 08:07:54 56° SE 08:16:50 10° ENE visible
20 Feb - 10:03:49 10° WSW 10:12:41 51° NNW 10:21:45 10° NE visible
20 Feb - 12:11:26 10° WNW 12:19:23 30° N 12:27:33 10° NE daylight
20 Feb - 14:17:37 10° NW 14:26:28 42° NNE 14:35:35 10° E daylight
20 Feb - 16:22:18 10° NW 16:31:57 81° SW 16:41:57 10° SE daylight
20 Feb - 18:29:05 10° W 18:35:49 21° SW 18:42:43 10° S daylight
21 Feb - 07:34:01 10° SSW 07:42:45 51° SE 07:51:31 10° ENE visible
21 Feb - 09:38:27 10° WSW 09:47:23 54° NNW 09:56:30 10° NE visible
21 Feb - 11:46:00 10° WNW 11:53:57 31° N 12:02:06 10° NE visible
21 Feb - 13:52:22 10° NW 14:01:05 39° NNE 14:10:04 10° E daylight
21 Feb - 15:57:03 10° NW 16:06:42 87° SW 16:16:42 10° SE daylight
21 Feb - 18:03:27 10° WNW 18:10:40 24° SW 18:18:04 10° S daylight
22 Feb - 07:09:00 10° SSW 07:17:36 46° SE 07:26:12 10° ENE visible
22 Feb - 09:13:05 10° WSW 09:22:05 58° NNW 09:31:15 10° NE visible
22 Feb - 11:20:34 10° WNW 11:28:32 31° N 11:36:41 10° NE visible
22 Feb - 13:27:07 10° NW 13:35:42 38° NNE 13:44:32 10° E daylight
22 Feb - 15:31:50 10° NW 15:41:26 87° NE 15:51:25 10° SE daylight
22 Feb - 17:37:53 10° WNW 17:45:30 27° SW 17:53:20 10° S daylight
23 Feb - 06:44:02 10° SSW 06:52:27 41° SE 07:00:50 10° ENE visible
23 Feb - 08:47:45 10° WSW 08:56:48 62° NNW 09:06:01 10° NE visible
23 Feb - 10:55:07 10° WNW 11:03:07 32° N 11:11:18 10° NE visible
23 Feb - 13:01:51 10° NW 13:10:18 36° NNE 13:19:00 10° E daylight
23 Feb - 15:06:36 10° NW 15:16:10 82° NE 15:26:07 10° SE daylight
23 Feb - 17:12:22 10° WNW 17:20:20 30° SW 17:28:32 10° S daylight
24 Feb - 06:19:07 10° SSW 06:27:18 37° SE 06:35:27 10° ENE visible
24 Feb - 08:22:26 10° WSW 08:31:32 67° NW 08:40:46 10° NE visible
24 Feb - 10:29:40 10° WNW 10:37:42 32° N 10:45:56 10° NE visible
24 Feb - 12:36:34 10° NW 12:44:54 35° NNE 12:53:29 10° ENE daylight
24 Feb - 14:41:23 10° NW 14:50:55 76° NE 15:00:47 10° ESE daylight
24 Feb - 16:46:55 10° WNW 16:55:09 33° SW 17:03:40 10° S daylight
25 Feb - 05:54:13 10° S 06:02:10 33° SE 06:10:02 10° ENE night (unlit)
25 Feb - 07:57:08 10° WSW 08:06:17 72° NW 08:15:32 10° NE visible
25 Feb - 10:04:13 10° WNW 10:12:18 33° NNW 10:20:34 10° NE visible
25 Feb - 12:11:17 10° NW 12:19:30 34° NNE 12:27:57 10° ENE daylight
25 Feb - 14:16:11 10° NW 14:25:38 71° NE 14:35:26 10° ESE daylight
25 Feb - 16:21:30 10° WNW 16:29:59 37° SW 16:38:45 10° SSE daylight
26 Feb - 05:29:23 10° S 05:37:02 30° SE 05:44:36 10° ENE night (unlit)
26 Feb - 07:31:51 10° WSW 07:41:02 77° NW 07:50:18 10° NE visible
26 Feb - 09:38:45 10° WNW 09:46:55 34° NNW 09:55:14 10° NE visible
26 Feb - 11:45:59 10° NW 11:54:06 32° NNE 12:02:25 10° ENE visible
26 Feb - 13:50:58 10° NW 14:00:21 66° NE 14:10:03 10° ESE daylight
26 Feb - 15:56:07 10° WNW 16:04:48 40° SW 16:13:47 10° SSE daylight
